• Processing (Info)

  • MPEC 2023-Q97 : 2023 QQ3

    The following Minor Planet Electronic Circular may be linked-to from your own Web pages, but must not otherwise be redistributed electronically.

    A form allowing access to any MPEC is at the bottom of this page.


    Read MPEC 2023-Q96 Read MPEC 2023-Q98


    M.P.E.C. 2023-Q97                               Issued 2023 August 23, 21:48 UT
    
         The Minor Planet Electronic Circulars contain information on unusual
             minor planets, routine data on comets and natural satellites,
             and occasional editorial announcements.  They are published
        on behalf of Division F of the International Astronomical Union by the
              Minor Planet Center, Smithsonian Astrophysical Observatory,
                              Cambridge, MA 02138, U.S.A.
    			  
                 Prepared using the Tamkin Foundation Computer Network
    
                                  MPC@CFA.HARVARD.EDU
                URL https://www.minorplanetcenter.net/    ISSN 1523-6714
    
                                    2023 QQ3                                 
    
    
    Observations:
         K23Q03Q* C2023 08 18.33670521 15 53.030-10 07 13.50         21.66wXEQ097F51
         K23Q03Q  C2023 08 18.34871321 15 52.381-10 06 39.61         22.16wXEQ097F51
         K23Q03Q  C2023 08 18.36075321 15 51.698-10 06 05.27         21.82wXEQ097F51
         K23Q03Q  C2023 08 18.37277921 15 51.035-10 05 30.95         22.41wXEQ097F51
         K23Q03Q  C2023 08 18.50022921 15 43.807-09 59 24.25         21.41GVEQ097F51
         K23Q03Q  C2023 08 18.50086821 15 43.771-09 59 22.30         21.64GVEQ097F51
         K23Q03Q 1C2023 08 18.98722 21 15 30.00 -09 36 29.9          21.4 VXEQ097033
         K23Q03Q 1C2023 08 18.99080 21 15 29.84 -09 36 20.0          21.3 VXEQ097033
         K23Q03Q 1C2023 08 18.99439 21 15 29.64 -09 36 08.7          21.4 VXEQ097033
         K23Q03Q  C2023 08 23.37821821 13 32.289-06 05 19.97         21.45GVEQ097F51
         K23Q03Q  C2023 08 23.37885821 13 32.253-06 05 18.26         22.00GVEQ097F51
    
    Observer details:
    033 Karl Schwarzschild Observatory, Tautenburg.  Observers S. Melnikov, C.
        Hoegner, F. Ludwig, M. Hartmann, B. Stecklum.  Measurer B. Stecklum.
        1.34-m f/3 Schmidt + CCD.
    F51 Pan-STARRS 1, Haleakala.  Observers J. Bulger, T. Lowe, P. Minguez, A.
        Schultz, I. Smith, K. Chambers.  Measurers K. Chambers, T. de Boer, J.
        Bulger, J. Fairlamb, H. Gao, M. Huber, C.-C. Lin, T. Lowe, E. Magnier, P.
        Minguez, Y. Ramanjooloo, A. Schultz, I. Smith, R. Wainscoat, R. Weryk, S.
        Chastel.  1.8-m Ritchey-Chretien + CCD.
    
    Orbital elements:
    2023 QQ3                                                 Earth MOID = 0.1313 AU
    Epoch 2023 Sept. 13.0 TT = JDT 2460200.5                Bell                    
    M   0.99872              (2000.0)            P               Q                  
    n   0.59476572     Peri.   27.31340     +0.96540750     +0.25076185             
    a   1.4003570      Node   317.96280     -0.25445183     +0.84617774             
    e   0.1899491      Incl.    6.12637     -0.05694401     +0.47021455             
    P   1.66           H   25.26          G   0.15           U   9                  
    Residuals in seconds of arc
    230818 F51  0.1-  0.2+    230818 F51  0.0   0.2-    230818 033  0.2-  0.5+
    230818 F51  0.1+  0.0     230818 F51  0.0   0.1-    230823 F51  0.0   0.1+
    230818 F51  0.1-  0.0     230818 033  0.0   0.0     230823 F51  0.0   0.1-
    230818 F51  0.2+  0.1+    230818 033  0.2+  0.4-
    
    Ephemeris:
    2023 QQ3                 a,e,i = 1.40, 0.19, 6                   q = 1.1344
    Date    TT    R. A. (2000) Decl.     Delta      r    Elong.  Phase     V
    2023 07 24    21 26 46.7 -26 33 53   0.1761  1.1842   161.4    15.8    22.7
    ...
    2023 08 08    21 21 46.4 -17 56 32   0.1454  1.1593   176.7     2.9    21.7
    ...
    2023 08 16    21 17 08.5 -11 57 43   0.1370  1.1492   174.1     5.2    21.7
    ...
    2023 08 22    21 14 05.1 -07 10 56   0.1346  1.1433   167.2    11.3    21.9
    2023 08 23    21 13 40.5 -06 22 59   0.1345  1.1424   166.1    12.3    21.9
    2023 08 24    21 13 18.1 -05 35 12   0.1345  1.1416   165.0    13.3    22.0
    ...
    2023 08 30    21 11 58.2 -00 56 04   0.1361  1.1377   158.6    18.9    22.2
    ...
    2023 09 07    21 12 58.7 +04 38 37   0.1425  1.1348   151.0    25.5    22.5
    ...
    2023 09 22    21 24 42.3 +12 19 10   0.1654  1.1368   140.7    34.0    23.0
    
    M. P. C. Staff               (C) Copyright 2023 MPC           M.P.E.C. 2023-Q97
    


    Read MPEC 2023-Q96 Read MPEC 2023-Q98


    MPEC number:

    Enter an MPEC number in one of the following forms:

    • 1997-B01 (the full form)
    • J97B01 (the packed version of the full form)
    • B01 (the abbreviated form)